Regional Weather Roundup
Issued by NWS

Home | Current Version | Previous Version | Graphics & Text | Print | Product List | Glossary On
Versions: 1 2 3 4 5 6 7 8 9 10 11 12 13 14 15 16 17 18 19 20 21 22 23 24 25 26 27 28 29 30 31 32 33 34 35 36 37 38 39 40 41 42 43 44 45 46 47 48 49 50
000
ASUS43 KFSD 212010
RWRSD

WEATHER ROUNDUP FOR SOUTH DAKOTA
NATIONAL WEATHER SERVICE SIOUX FALLS SD
300 PM CDT FRI JUL 21 2017

NOTE: "FAIR" INDICATES FEW OR NO CLOUDS BELOW 12,000 FEET WITH NO
SIGNIFICANT WEATHER AND/OR OBSTRUCTIONS TO VISIBILITY.


SDZ001>005-009-010-012>017-212100-
NORTHWEST AND NORTH CENTRAL SOUTH DAKOTA

CITY           SKY/WX    TMP DP  RH WIND       PRES   REMARKS
BUFFALO          N/A     91  57  31 N20G25    29.83F
FAITH            N/A     93  61  34 VRB3      29.83F
MOBRIDGE       SUNNY     90  73  57 VRB5      29.77F HX  98
$$

SDZ012>016-024>037-041>051-057-063-072>074-212100-
SOUTHWEST AND SOUTH CENTRAL SOUTH DAKOTA

CITY           SKY/WX    TMP DP  RH WIND       PRES   REMARKS
RAPID CTY ARPT CLOUDY    92  51  24 N29G39    29.90F
PIERRE         SUNNY     95  67  39 NW8       29.77F HX  99
CUSTER         SUNNY     87  28  12 NW13G23   30.10S
ELLSWORTH AFB  CLOUDY    91  51  25 NW18G30   29.91S
PHILIP         SUNNY     97  61  30 NW9       29.81S HX  97
PINE RIDGE     SUNNY     95  57  27 N7        29.92S
SPEARFISH      FAIR      88  46  23 NW18G25   30.00S
WINNER         FAIR      99  68  36 N9        29.80F HX 104
$$

SDZ004>011-016>023-039-040-212100-
NORTHEAST SOUTH DAKOTA

CITY           SKY/WX    TMP DP  RH WIND       PRES   REMARKS
ABERDEEN       SUNNY     87  75  67 S6        29.78F HX  96
WATERTOWN      SUNNY     87  69  54 E5        29.82F
BROOKINGS      SUNNY     85  72  65 SW7       29.85S
SISSETON         N/A     90  76  63 SE10      29.77S HX 101
$$

SDZ017-020-022-023-036>040-048>070-212100-
SOUTHEAST SOUTH DAKOTA

CITY           SKY/WX    TMP DP  RH WIND       PRES   REMARKS
SIOUX FALLS    PTSUNNY   85  73  67 SE9       29.83F
HURON          MOSUNNY   88  70  55 S7        29.78F
CHAMBERLAIN    MOSUNNY   94  73  50 CALM      29.79S HX 103
MITCHELL       SUNNY     89  71  55 SE12      29.79F HX  95
YANKTON        SUNNY     88  76  67 E9        29.79S HX  99
$$

ABBREVIATIONS USED IN REMARKS
   TC - TEMPERATURE IN CELSIUS
  WCI - WIND CHILL INDEX
   HX - HEAT INDEX
  VSB - VISIBILITY




USA.gov is the U.S. government's official web portal to all federal, state and local government web resources and services.